Wind_Speed
60 59 58 56 55 53 53 52 50 50 48 48 47 47 45 44 43 41 40 39 38 37 37 36 36 36 35 35 35 35 36 37 37 38 39 40 41 42 44 45 47 48 50
61 60 58 56 56 55 54 52 51 50 48 47 47 46 45 44 43 41 40 40 39 38 37 36 36 36 35 35 35 35 36 37 37 38 39 40 41 43 45 46 47 49 50
62 61 59 58 56 56 55 53 52 51 50 47 46 46 45 44 43 41 40 40 39 38 37 37 36 36 35 35 35 36 37 37 38 39 40 40 42 43 45 46 47 49 51
62 61 60 59 57 55 55 55 53 52 51 50 48 46 45 44 43 42 41 40 40 39 38 37 37 36 36 36 36 37 37 38 38 39 40 41 42 43 45 46 48 50 52
61 61 61 59 58 57 55 55 54 52 52 51 49 47 45 45 43 42 42 41 40 39 37 37 36 36 36 36 37 37 37 37 38 39 39 40 42 44 45 47 49 51 52
61 60 60 60 60 58 56 56 56 53 52 51 50 47 46 45 43 42 41 41 40 38 37 37 37 37 36 36 37 36 36 37 38 38 39 41 42 44 46 47 49 51 52
60 60 60 60 59 58 56 56 56 54 52 51 50 48 45 44 43 42 42 41 40 38 37 37 36 36 36 36 36 36 36 37 38 39 40 41 43 45 46 48 50 51 52
58 59 58 58 57 57 58 57 56 54 53 51 49 48 46 44 43 41 41 41 39 38 37 36 36 35 35 35 35 35 36 37 38 38 40 42 44 45 46 48 50 51 51
57 57 57 57 55 55 56 56 56 54 53 52 49 47 46 45 44 42 42 41 40 38 37 36 35 35 34 35 35 35 36 36 37 39 41 43 44 45 46 47 49 50 51
55 55 56 57 55 55 55 54 54 52 51 51 50 48 47 45 44 43 42 41 40 39 38 37 35 35 35 34 34 35 35 36 38 40 42 42 43 44 46 47 49 49 50
54 55 55 55 55 54 54 54 53 51 50 50 49 49 46 45 43 42 42 41 40 39 38 36 36 35 35 34 34 35 36 37 39 40 41 41 42 44 46 47 48 49 51
54 54 54 54 55 54 53 53 53 51 50 50 47 47 47 45 43 42 41 40 39 38 37 36 35 35 35 35 35 35 36 37 38 39 40 41 42 44 45 46 47 49 51
52 54 55 54 53 54 53 52 53 51 48 48 46 46 45 44 43 42 41 39 39 38 37 37 36 35 35 35 35 35 35 36 37 38 39 40 42 43 44 45 47 49 51
49 51 53 53 52 52 53 52 52 51 49 47 46 44 44 43 42 41 40 39 38 37 37 36 35 35 35 35 35 35 35 35 36 37 38 40 42 43 44 45 47 49 51
47 48 49 50 50 51 51 51 50 49 48 47 47 45 44 43 41 39 38 37 36 36 35 34 34 34 34 34 34 33 34 35 36 37 38 40 41 42 43 44 46 49 51
45 47 47 48 49 49 49 49 49 48 47 46 45 44 42 41 39 38 36 36 35 34 33 33 33 33 33 33 33 32 33 33 34 36 38 39 40 41 42 44 47 49 51
43 44 46 46 47 47 47 47 47 47 47 45 43 42 40 38 37 37 35 34 33 32 32 32 32 32 32 31 31 31 31 32 33 35 37 38 39 40 41 44 47 49 50
42 43 44 44 45 45 46 46 46 46 45 44 42 40 39 37 36 35 34 32 30 30 29 29 29 28 28 28 28 29 30 31 33 34 36 37 38 39 41 44 46 47 48
41 42 43 43 44 43 43 44 44 44 44 43 42 40 39 38 36 35 32 31 30 29 28 26 25 25 26 26 27 28 29 30 32 34 35 36 37 39 41 44 45 46 46
40 41 42 43 43 43 43 44 43 42 41 40 40 40 38 36 34 33 31 30 30 29 27 26 25 25 25 26 27 27 29 30 31 33 34 35 36 38 41 43 44 44 44
41 41 43 43 43 43 44 44 43 41 40 39 39 38 36 34 32 31 30 30 29 27 26 25 25 25 25 25 26 27 28 29 31 32 33 34 36 38 40 42 43 43 42
42 43 43 43 43 43 43 43 42 41 39 38 37 36 35 34 33 32 30 29 28 26 25 24 24 24 24 25 25 26 26 28 30 31 32 33 35 37 39 41 42 41 39
42 42 43 43 44 43 43 43 43 41 39 37 36 34 34 33 32 31 30 28 26 25 25 24 23 23 23 23 23 24 26 28 30 31 32 33 35 37 38 39 39 38 35
40 41 41 42 42 42 41 41 40 38 37 37 35 33 32 31 30 29 28 26 25 24 23 22 22 22 22 22 23 24 26 28 29 30 30 31 33 35 37 37 36 34 32
40 40 40 39 39 40 40 39 38 37 36 35 34 32 30 30 29 28 26 25 24 23 22 21 21 21 21 22 23 24 26 27 28 28 29 30 32 34 35 35 33 30 28
39 38 38 38 38 38 38 37 35 35 34 34 33 31 30 29 28 27 25 23 23 22 21 21 20 20 21 22 23 24 25 26 26 27 27 30 31 33 34 33 30 27 25
Wind_Direction
215 216 217 219 219 220 221 222 223 223 226 228 231 233 235 237 239 242 244 247 250 254 258 262 265 269 273 276 279 283 286 290 294 297 300 302 303 306 308 309 311 312 314
217 216 217 218 219 221 222 223 224 225 226 228 231 234 235 237 239 243 246 248 251 254 258 261 265 269 272 275 279 283 286 290 294 297 300 302 304 306 308 310 311 312 314
218 218 218 218 219 221 222 224 225 225 227 229 231 233 235 237 240 243 246 248 251 254 257 261 265 268 272 274 278 282 286 290 294 298 300 302 304 307 308 310 311 313 315
218 218 219 220 221 221 223 224 225 226 228 229 232 234 236 238 240 243 246 248 251 254 257 261 265 268 271 274 278 282 286 290 295 298 300 302 305 307 309 311 312 314 315
218 219 219 221 221 221 223 223 224 227 228 229 231 234 236 239 241 244 246 248 251 254 257 261 264 266 270 273 278 282 286 290 294 297 300 303 306 308 309 311 313 314 315
218 219 219 221 222 223 224 224 225 226 228 229 231 234 237 239 241 243 245 248 250 254 257 261 264 266 269 274 278 281 286 291 295 298 301 304 306 308 310 312 313 314 316
219 219 220 221 222 223 224 224 225 226 228 229 231 233 237 238 240 242 245 248 251 254 257 261 264 268 271 275 278 282 287 291 295 298 301 304 306 308 310 312 314 315 317
219 220 221 221 221 222 224 225 225 226 228 230 231 232 236 238 240 244 246 249 251 254 257 260 264 268 272 275 279 283 288 292 295 298 301 304 306 308 310 313 315 316 318
220 221 222 222 222 223 224 225 226 227 228 229 230 232 234 237 240 243 246 249 251 254 256 260 264 269 272 276 280 285 289 292 295 299 302 304 306 308 311 313 315 317 318
219 220 221 222 223 223 223 224 226 226 228 229 229 232 234 236 240 243 246 248 250 253 256 260 265 269 273 277 281 286 290 293 296 299 302 304 307 310 312 314 315 317 319
218 219 220 221 221 222 223 224 225 226 227 228 230 231 233 235 238 243 247 248 249 252 256 261 265 268 272 277 280 285 289 293 296 299 302 305 308 311 312 314 316 318 319
217 218 218 219 219 221 222 224 224 225 227 227 229 231 233 235 237 242 246 247 249 252 256 261 264 267 272 275 280 285 289 292 296 300 303 306 309 311 313 314 317 319 320
216 216 217 218 219 220 221 222 224 225 226 228 229 231 232 235 238 240 244 246 248 252 256 259 262 266 271 274 280 285 289 292 296 301 304 308 310 312 314 316 318 320 321
214 215 216 217 218 219 220 221 223 225 227 229 231 232 232 235 238 240 243 246 249 252 254 257 260 265 269 274 280 284 288 293 298 302 305 309 311 313 315 317 319 321 323
214 213 213 214 216 218 219 220 221 224 226 228 230 233 234 235 237 239 242 244 247 250 252 255 260 264 269 275 279 283 288 294 298 302 306 310 312 314 316 318 320 323 324
214 213 214 214 214 215 217 218 219 221 224 226 227 230 233 236 238 238 240 242 244 248 252 255 259 264 270 275 280 284 289 295 299 303 307 311 313 315 317 319 322 324 325
213 212 213 213 213 213 215 216 218 220 221 223 225 226 228 232 236 238 240 242 243 247 251 255 260 265 271 276 280 285 289 295 299 303 308 312 314 316 319 321 323 325 327
212 211 212 213 213 213 213 214 216 217 219 220 222 224 226 229 232 235 238 241 243 246 251 256 261 265 271 277 282 286 291 296 300 305 309 312 315 317 320 322 324 326 328
210 210 210 212 213 213 212 212 213 216 217 220 221 222 225 229 232 234 237 240 243 247 251 255 261 266 272 279 284 288 293 297 302 306 310 312 315 318 321 323 325 327 329
209 209 209 210 212 213 212 213 214 216 217 218 219 222 225 229 231 232 235 238 243 247 250 256 263 268 274 280 285 290 295 299 304 308 312 314 316 320 322 325 327 328 329
208 208 207 208 209 211 212 214 215 217 216 216 217 220 224 226 229 231 234 238 241 244 249 256 264 270 276 280 285 290 295 299 305 309 312 315 318 320 323 325 327 329 329
206 206 207 207 207 208 210 212 214 215 215 216 218 219 220 223 226 230 234 237 239 242 247 255 261 269 276 279 284 291 295 300 306 310 313 316 320 322 325 326 328 329 330
204 205 205 205 205 207 209 211 211 212 214 216 218 218 218 221 224 229 233 235 239 242 248 254 260 268 273 278 285 292 297 303 307 311 313 317 320 324 326 327 329 330 330
201 200 201 203 204 204 205 206 207 210 213 215 216 217 218 220 224 227 231 233 238 244 250 255 261 267 272 278 286 292 298 303 308 311 314 318 322 325 327 329 330 331 331
197 197 198 200 203 203 204 206 208 208 210 212 213 215 217 220 223 225 228 233 239 245 249 254 260 267 273 280 287 293 298 304 308 311 314 319 323 326 329 331 331 331 332
195 196 197 198 200 201 201 202 203 205 207 209 210 213 216 219 221 224 227 233 239 243 247 254 261 268 276 282 288 294 300 304 308 312 316 320 324 327 330 332 332 332 333
Height
5610 5620 5629 5638 5646 5653 5661 5669 5676 5683 5689 5695 5700 5705 5710 5715 5719 5723 5726 5728 5731 5733 5734 5735 5735 5735 5735 5734 5732 5731 5728 5726 5723 5719 5715 5710 5706 5701 5695 5689 5682 5676 5668
5600 5609 5618 5627 5636 5644 5652 5660 5667 5674 5680 5686 5691 5697 5702 5707 5711 5715 5718 5721 5723 5725 5726 5727 5727 5727 5727 5726 5725 5723 5721 5718 5715 5712 5708 5703 5698 5692 5687 5680 5674 5666 5659
5590 5599 5608 5617 5626 5635 5643 5650 5658 5665 5671 5677 5683 5688 5693 5698 5703 5707 5710 5713 5715 5717 5718 5719 5720 5720 5719 5719 5717 5716 5714 5711 5708 5704 5700 5695 5690 5684 5678 5672 5665 5658 5650
5580 5589 5598 5608 5617 5625 5633 5641 5648 5655 5662 5668 5674 5679 5684 5689 5694 5698 5701 5704 5707 5708 5710 5711 5712 5712 5712 5711 5710 5708 5706 5703 5700 5696 5692 5687 5682 5676 5670 5663 5656 5649 5640
5570 5579 5589 5598 5606 5615 5623 5631 5638 5645 5652 5658 5665 5671 5676 5681 5686 5690 5693 5696 5698 5700 5702 5703 5704 5704 5704 5703 5702 5700 5698 5695 5692 5688 5684 5679 5674 5668 5661 5655 5648 5640 5632
5560 5569 5579 5588 5596 5605 5613 5621 5628 5636 5642 5649 5656 5662 5667 5673 5678 5681 5685 5688 5690 5692 5694 5695 5696 5696 5696 5695 5694 5692 5690 5687 5684 5680 5676 5671 5665 5659 5653 5646 5638 5632 5624
5550 5559 5568 5577 5586 5594 5603 5611 5619 5627 5633 5640 5647 5653 5659 5665 5669 5673 5676 5679 5682 5684 5686 5687 5688 5688 5688 5687 5686 5684 5682 5679 5676 5672 5668 5662 5657 5651 5645 5638 5630 5621 5613
5540 5549 5558 5567 5576 5584 5593 5601 5609 5617 5624 5631 5638 5645 5651 5656 5661 5664 5668 5671 5674 5676 5678 5680 5680 5680 5680 5679 5678 5676 5674 5671 5668 5664 5660 5655 5649 5642 5636 5629 5621 5613 5604
5530 5539 5548 5557 5566 5574 5583 5592 5600 5608 5615 5622 5629 5635 5642 5647 5652 5656 5659 5662 5665 5668 5670 5671 5672 5673 5672 5671 5670 5668 5666 5663 5659 5655 5651 5646 5640 5634 5628 5621 5613 5605 5596
5520 5529 5538 5547 5556 5565 5574 5582 5590 5598 5606 5613 5620 5626 5633 5638 5643 5647 5650 5654 5657 5660 5662 5663 5664 5665 5664 5663 5662 5660 5658 5655 5651 5647 5643 5637 5632 5626 5619 5612 5604 5596 5587
5510 5519 5528 5537 5547 5555 5564 5572 5581 5589 5597 5604 5611 5617 5623 5628 5634 5638 5642 5645 5648 5651 5653 5655 5656 5656 5656 5655 5654 5652 5650 5647 5643 5639 5634 5629 5624 5617 5610 5603 5595 5587 5578
5499 5509 5519 5528 5537 5546 5554 5563 5571 5579 5587 5595 5602 5608 5614 5619 5625 5629 5633 5637 5640 5643 5645 5647 5648 5648 5648 5647 5646 5644 5642 5639 5635 5631 5626 5621 5615 5609 5602 5594 5586 5578 5570
5489 5499 5508 5518 5527 5536 5545 5554 5562 5570 5578 5586 5593 5599 5605 5611 5616 5621 5625 5628 5631 5634 5636 5638 5639 5640 5639 5639 5638 5636 5633 5630 5627 5623 5618 5613 5607 5600 5593 5586 5578 5569 5560
5480 5489 5499 5509 5518 5527 5536 5545 5553 5562 5570 5578 5585 5591 5597 5602 5607 5612 5617 5620 5623 5625 5628 5629 5630 5631 5631 5631 5630 5628 5625 5622 5619 5615 5610 5605 5599 5592 5585 5578 5570 5561 5552
5472 5481 5490 5499 5509 5518 5527 5537 5546 5554 5562 5570 5577 5583 5589 5594 5600 5604 5608 5612 5615 5617 5619 5621 5622 5623 5623 5623 5622 5620 5617 5614 5611 5607 5602 5596 5590 5583 5577 5569 5561 5553 5544
5464 5473 5482 5491 5500 5510 5519 5528 5536 5545 5553 5560 5568 5575 5581 5586 5590 5595 5600 5603 5606 5609 5611 5613 5614 5615 5616 5615 5614 5612 5609 5606 5603 5599 5594 5588 5582 5576 5569 5561 5553 5545 5536
5457 5465 5474 5483 5492 5501 5511 5520 5529 5537 5544 5552 5559 5566 5572 5578 5582 5587 5591 5595 5598 5601 5603 5605 5607 5608 5608 5607 5606 5604 5601 5598 5595 5591 5586 5580 5574 5568 5561 5553 5545 5537 5527
5450 5458 5467 5476 5485 5494 5503 5512 5521 5529 5537 5543 5551 5557 5564 5569 5575 5579 5584 5587 5590 5593 5596 5598 5599 5600 5600 5599 5598 5596 5594 5591 5587 5583 5578 5572 5566 5560 5553 5546 5537 5529 5519
5443 5451 5460 5469 5478 5487 5496 5504 5513 5521 5529 5536 5543 5549 5555 5561 5566 5571 5576 5580 5584 5587 5589 5591 5592 5592 5592 5591 5590 5588 5586 5583 5579 5575 5570 5565 5559 5552 5546 5538 5530 5521 5512
5436 5445 5454 5462 5471 5480 5489 5497 5505 5514 5521 5528 5535 5542 5548 5553 5559 5564 5569 5573 5577 5580 5582 5583 5584 5585 5585 5584 5583 5581 5579 5576 5572 5567 5562 5557 5551 5545 5538 5531 5523 5514 5506
5430 5438 5446 5455 5464 5473 5482 5490 5499 5507 5514 5521 5528 5535 5541 5547 5552 5558 5562 5566 5569 5572 5574 5576 5577 5577 5577 5576 5575 5574 5571 5568 5564 5560 5555 5550 5544 5538 5531 5524 5516 5508 5499
5423 5431 5440 5449 5458 5466 5475 5484 5492 5499 5507 5514 5521 5527 5534 5540 5545 5550 5555 5559 5562 5565 5567 5569 5570 5570 5570 5569 5568 5566 5564 5561 5557 5553 5548 5543 5537 5531 5524 5517 5509 5501 5493
5417 5425 5434 5443 5451 5460 5468 5477 5485 5493 5501 5508 5515 5521 5527 5533 5539 5544 5548 5552 5555 5558 5560 5561 5563 5563 5563 5563 5561 5559 5557 5554 5550 5546 5541 5536 5530 5524 5517 5510 5503 5495 5488
5411 5420 5429 5437 5446 5455 5463 5471 5479 5487 5495 5502 5509 5515 5521 5527 5532 5537 5542 5545 5548 5551 5553 5555 5556 5556 5556 5556 5554 5552 5550 5547 5543 5539 5534 5529 5524 5518 5511 5504 5497 5490 5484
5407 5416 5424 5433 5441 5449 5458 5466 5474 5482 5489 5496 5503 5509 5515 5521 5526 5531 5535 5539 5542 5545 5547 5548 5549 5550 5550 5549 5548 5546 5543 5540 5536 5532 5528 5523 5518 5512 5505 5499 5492 5486 5480
5404 5412 5421 5429 5437 5446 5454 5461 5469 5477 5484 5491 5498 5504 5510 5515 5520 5525 5529 5533 5536 5538 5540 5542 5543 5543 5543 5542 5541 5539 5536 5533 5530 5526 5522 5517 5512 5506 5500 5494 5487 5482 5477